Regional Weather Roundup
Issued by NWS

Home | Current Version | Previous Version | Text Only | Print | Product List | Glossary Off
Versions: 1 2 3 4 5 6 7 8 9 10 11 12 13 14 15 16 17 18 19 20 21 22 23 24 25 26 27 28 29 30 31 32 33 34 35 36 37 38 39 40 41 42 43 44 45 46 47 48 49 50

000
ASUS44 KMEG 020200
RWRTN
TENNESSEE HOURLY STATE WEATHER ROUNDUP
NATIONAL WEATHER SERVICE MEMPHIS TN
900 PM CDT WED JUL 01 2015

TNZ002-004-019-021-049-052-054-088>092-020300-
WEST TENNESSEE

CITY           SKY/WX    TMP DP  RH WIND       PRES   REMARKS
MEMPHIS INTL   MOCLDY    83  71  67 SW10      29.94S
NWS MEMPHIS      N/A     83 N/A N/A MISG        N/A
JACKSON        PTCLDY    78  74  87 S3        29.94F
DYERSBURG        N/A    N/A N/A N/A MISG        N/A
PARIS          PTCLDY    72  70  94 SE6       29.95F
LEXINGTON      MOCLDY    73  68  83 SE3       29.95F
$$

TNZ008-025-027-028-033-062-065-066-020300-
NORTH MIDDLE TENNESSEE

CITY           SKY/WX    TMP DP  RH WIND       PRES   REMARKS
NASHVILLE      CLOUDY    70  69  97 S8        29.98F
CLARKSVILLE    PTCLDY    72  67  84 S10       29.95S
COOKEVILLE     MOCLDY    70  68  94 CALM      30.00R
CROSSVILLE     CLOUDY    67  63  87 SW6       30.04R
$$

TNZ061-075-076-078-094-096-097-020300-
SOUTH MIDDLE TENNESSEE

CITY           SKY/WX    TMP DP  RH WIND       PRES   REMARKS
FAYETTEVILLE   CLOUDY    68  66  94 S3        30.02S
TULLAHOMA      MOCLDY    66  66 100 CALM      30.04S
WINCHESTER     CLOUDY    66  66 100 CALM      30.05R
SHELBYVILLE    CLOUDY    70  70 100 S5        30.03S
$$

TNZ017-018-042-046-047-020300-
NORTHEAST TENNESSEE

CITY           SKY/WX    TMP DP  RH WIND       PRES   REMARKS
TRI CITIES     CLOUDY    67  66  97 N3        29.98F FOG
$$

TNZ012-013-036-069-073-074-020300-
CENTRAL EAST TENNESSEE

CITY           SKY/WX    TMP DP  RH WIND       PRES   REMARKS
KNOXVILLE      CLOUDY    69  66  90 W10       29.98
OAK RIDGE      CLOUDY    72  67  84 VRB3      30.00R
GATLINBURG     CLEAR     68  64  88 CALM      29.96R
$$

TNZ083-085-099-020300-
SOUTHEAST TENNESSEE

CITY           SKY/WX    TMP DP  RH WIND       PRES   REMARKS
CHATTANOOGA    CLOUDY    69  67  93 S3        30.03R
$$

SKY/WX REPORTED AS FAIR MEANS FEW OR NO CLOUDS BELOW
12 THOUSAND FEET.




USA.gov is the U.S. government's official web portal to all federal, state and local government web resources and services.